Rhinelander, WI

9:18 AM CDT on March 28, 2017 (GMT -0500)
Rhinelander-Oneida County

Weather History for KRHI - January, 2014

Change the Weather History Date:

Saturday, January 11, 2014

  Actual Average Record
Temperature  
Mean Temperature 26 °F 12 °F  
Max Temperature 27 °F 21 °F 43 °F (2012)
Min Temperature 24 °F 3 °F -33 °F (1979)
Degree Days  
Heating Degree Days 39 53  
Month to date heating degree days 746 578  
Since 1 July heating degree days 4751 4204  
Cooling Degree Days 0 0  
Month to date cooling degree days 0 0  
Year to date cooling degree days 0 0  
Moisture  
Dew Point 23 °F    
Average Humidity 92    
Maximum Humidity 100    
Minimum Humidity 84    
Precipitation  
Precipitation 0.11 in 0.04 in 0.35 in (1975)
Month to date precipitation 0.33 0.41  
Year to date precipitation 0.33 0.41  
Snow  
Snow 1.40 in - 4.00 in (1938)
Month to date snowfall 5.3  
Since 1 July snowfall 38.2  
Snow Depth 16.00 in    
Sea Level Pressure  
Sea Level Pressure 29.46 in    
Wind  
Wind Speed 9 mph (WNW)    
Max Wind Speed 20 mph    
Max Gust Speed 24 mph    
Visibility 6 miles    
Events Snow    
T = Trace of Precipitation, MM = Missing Value Source: NWS Daily Summary

Daily Weather History Graph

Daily Weather History Graph

Search for Another Location

Airport or City:

Trip Planner

Search our weather history database for the weather conditions in past years. The results will help you decide how hot, cold, wet, or windy it might be!

Date:

Astronomy

Jan. 11, 2014 Rise Set
Actual Time 7:36 AM CST 4:35 PM CST
Civil Twilight 7:03 AM CST 5:09 PM CST
Nautical Twilight 6:25 AM CST 5:46 PM CST
Astronomical Twilight 5:50 AM CST 6:21 PM CST
Moon 1:21 PM CST (1/11) 3:38 AM CST (1/11)
Length of Visible Light 10h 06m
Length of Day
8h 59m
Waxing Gibbous, 83% of the Moon is Illuminated
Jan 11
Waxing Gibbous
Jan 15
Full
Jan 23
Last Quarter
Jan 30
New
Feb 6
First Quarter

Hourly Weather History & Observations

Time (CST) Temp. Windchill Dew Point Humidity Pressure Visibility Wind Dir Wind Speed Gust Speed Precip Events Conditions
12:24 AM 25.0 °F 20.7 °F 23.0 °F 92% 29.39 in 2.0 mi NNW 3.5 mph - 0.00 in Snow Light Snow
12:53 AM 25.0 °F - 24.1 °F 96% 29.45 in 1.2 mi Calm Calm - 0.00 in Snow Light Snow
1:53 AM 25.0 °F - 23.0 °F 92% 29.44 in 1.8 mi Calm Calm - 0.01 in Snow Light Snow
2:18 AM 25.0 °F - 24.1 °F 96% 29.37 in 0.8 mi Calm Calm - 0.02 in Snow Light Snow
2:38 AM 25.0 °F - 23.0 °F 92% 29.36 in 1.2 mi Calm Calm - 0.04 in Snow Light Snow
2:51 AM 24.8 °F - 23.0 °F 93% 29.35 in 2.0 mi Calm Calm - 0.04 in Snow Light Snow
2:53 AM 25.0 °F - 23.0 °F 92% 29.42 in 2.0 mi Calm Calm - 0.04 in Snow Light Snow
3:00 AM 25.0 °F - 23.0 °F 92% 29.35 in 1.2 mi Calm Calm - 0.00 in Snow Light Snow
3:53 AM 25.0 °F 17.1 °F 23.0 °F 92% 29.41 in 1.0 mi WNW 6.9 mph - 0.02 in Snow Light Snow
4:24 AM 25.0 °F 17.1 °F 23.0 °F 92% 29.34 in 2.5 mi WNW 6.9 mph - 0.01 in Snow Light Snow
4:29 AM 25.0 °F 17.1 °F 23.0 °F 92% 29.34 in 3.0 mi Variable 6.9 mph - 0.01 in Snow Light Snow
4:43 AM 25.0 °F 15.5 °F 21.9 °F 88% 29.34 in 7.0 mi WNW 9.2 mph - 0.01 in   Overcast
4:53 AM 24.1 °F 15.2 °F 21.9 °F 91% 29.42 in 8.0 mi WNW 8.1 mph - 0.01 in   Overcast
5:53 AM 24.1 °F 17.0 °F 23.0 °F 96% 29.41 in 10.0 mi Variable 5.8 mph - N/A   Overcast
6:53 AM 24.1 °F 17.0 °F 23.0 °F 96% 29.42 in 10.0 mi WNW 5.8 mph - N/A   Overcast
7:53 AM 24.1 °F 14.4 °F 21.9 °F 91% 29.42 in 8.0 mi WNW 9.2 mph - N/A   Overcast
8:41 AM 24.1 °F 13.1 °F 21.9 °F 91% 29.38 in 5.0 mi WNW 11.5 mph 21.9 mph N/A   Overcast
8:53 AM 24.1 °F 16.0 °F 21.9 °F 91% 29.44 in 5.0 mi NW 6.9 mph - N/A   Overcast
9:35 AM 24.1 °F 15.2 °F 23.0 °F 96% 29.38 in 1.8 mi WNW 8.1 mph - N/A   Overcast
9:53 AM 24.1 °F 14.4 °F 23.0 °F 96% 29.45 in 2.5 mi West 9.2 mph - N/A   Overcast
10:00 AM 24.1 °F 14.4 °F 23.0 °F 96% 29.38 in 4.0 mi WNW 9.2 mph - N/A   Overcast
10:23 AM 25.0 °F 16.3 °F 23.0 °F 92% 29.39 in 9.0 mi WNW 8.1 mph - N/A   Overcast
10:53 AM 25.0 °F 16.3 °F 23.0 °F 92% 29.46 in 9.0 mi WNW 8.1 mph - N/A   Overcast
11:53 AM 25.0 °F 15.5 °F 23.0 °F 92% 29.45 in 6.0 mi WNW 9.2 mph - N/A   Overcast
12:53 PM 26.1 °F 16.8 °F 23.0 °F 88% 29.45 in 8.0 mi West 9.2 mph - N/A   Overcast
1:53 PM 26.1 °F 15.6 °F 24.1 °F 92% 29.44 in 6.0 mi WNW 11.5 mph - N/A   Overcast
2:53 PM 27.0 °F 18.7 °F 25.0 °F 92% 29.47 in 6.0 mi West 8.1 mph - N/A   Overcast
3:53 PM 27.0 °F 18.0 °F 25.0 °F 92% 29.51 in 5.0 mi WNW 9.2 mph - N/A   Overcast
4:53 PM 27.0 °F 17.3 °F 25.0 °F 92% 29.53 in 7.0 mi WNW 10.4 mph - N/A   Overcast
5:53 PM 27.0 °F 16.7 °F 25.0 °F 92% 29.56 in 10.0 mi WNW 11.5 mph - N/A   Overcast
6:53 PM 27.0 °F 15.6 °F 23.0 °F 85% 29.58 in 10.0 mi WNW 13.8 mph 19.6 mph N/A   Overcast
7:53 PM 26.1 °F 16.2 °F 23.0 °F 88% 29.60 in 10.0 mi West 10.4 mph - N/A   Overcast
8:05 PM 26.1 °F 14.5 °F 23.0 °F 88% 29.54 in 10.0 mi West 13.8 mph - N/A   Overcast
8:12 PM 26.1 °F 16.2 °F 23.0 °F 88% 29.54 in 10.0 mi West 10.4 mph - N/A   Overcast
8:22 PM 26.1 °F 16.2 °F 23.0 °F 88% 29.54 in 10.0 mi West 10.4 mph - N/A   Overcast
8:53 PM 26.1 °F 15.6 °F 23.0 °F 88% 29.61 in 10.0 mi West 11.5 mph - N/A   Overcast
9:16 PM 25.0 °F 11.7 °F 21.9 °F 88% 29.55 in 10.0 mi West 17.3 mph - N/A   Overcast
9:53 PM 25.0 °F 14.8 °F 21.9 °F 88% 29.64 in 10.0 mi West 10.4 mph - N/A   Overcast
10:04 PM 25.0 °F 15.5 °F 21.9 °F 88% 29.56 in 10.0 mi West 9.2 mph - N/A   Overcast
10:53 PM 25.0 °F 13.6 °F 21.9 °F 88% 29.64 in 10.0 mi West 12.7 mph - N/A   Overcast
11:53 PM 24.1 °F 13.7 °F 21.9 °F 91% 29.65 in 10.0 mi WSW 10.4 mph - N/A   Overcast